#timestamp,LO_Frequency,Hit 
1500811215.6,286046992.2,N
1500811235.5,286046994.5,N
1500811255.3,286046996.0,N
1500811275.1,286046997.0,N
1500811295.9,286046999.2,N
1500811315.7,286046999.5,N
1500811335.5,286047002.7,N
1500811355.3,286047000.2,N
1500811375.2,286047000.1,N
1500811395.0,286046997.4,N
1500811395.9,286046997.4,N
1500811415.7,286046996.5,N
1500811435.6,286046996.8,N
1500811455.4,286046997.1,N
1500811475.2,286046996.5,N
1500811495.1,286046996.9,N
1500811496.0,286046996.9,N
1500811515.8,286046997.1,N
1500811535.6,286046995.1,N
1500811555.5,286046997.8,N
1500811575.3,286046995.6,N
1500811595.1,286046997.6,N
1500811615.8,286046997.3,N
1500811635.7,286046997.9,N
1500811655.8,286046998.0,N
1500811675.8,286046997.1,N
1500811695.6,286046997.5,N
1500811715.4,286046995.1,N
1500811735.2,286046996.2,N
1500811755.1,286046996.1,N
1500811756.0,286046996.1,N
1500811775.8,286046997.6,N
1500811795.6,286046998.9,N
1500811815.5,286046998.1,N
1500811835.3,286046999.8,N
1500811855.1,286047000.4,N
1500811875.9,286046998.1,N
1500811895.7,286047003.5,N
1500811915.5,286047008.8,Y
1500811935.4,286047018.5,Y
1500811955.2,286047024.9,Y
1500811975.1,286047028.0,Y
1500811976.0,286047028.0,Y
1500811995.8,286047032.1,Y
1500812015.6,286047035.7,Y
1500812035.5,286047035.4,Y
1500812055.8,286047033.4,N
1500812075.6,286047032.8,N
1500812095.5,286047027.1,N
1500812115.3,286047025.3,N
1500812135.1,286047029.5,N
1500812155.9,286047029.6,N
1500812175.7,286047027.4,N
1500812195.5,286047027.8,N
1500812215.4,286047029.5,N
1500812235.2,286047029.2,N
1500812255.0,286047029.3,N
1500812255.9,286047029.3,N
1500812275.8,286047029.1,N
1500812295.6,286047030.9,N
1500812315.4,286047030.6,N
1500812335.2,286047031.4,N
1500812355.1,286047028.6,N
1500812356.0,286047028.6,N
1500812375.8,286047027.4,N
1500812395.6,286047028.2,N
1500812415.5,286047025.3,N
1500812435.3,286047025.6,N
1500812455.1,286047022.1,N
1500812475.9,286047024.2,N
1500812495.7,286047026.3,N
1500812515.5,286047026.0,N
1500812535.4,286047027.4,N
1500812555.2,286047031.6,N
1500812575.0,286047031.9,N
1500812575.9,286047031.9,N
1500812595.8,286047033.8,N
1500812615.6,286047035.3,N
1500812635.4,286047039.5,N
1500812655.2,286047040.7,N
1500812675.1,286047040.7,N
1500812676.0,286047040.7,N
1500812695.8,286047039.7,N
1500812715.7,286047042.4,Y
1500812735.5,286047018.8,N
1500812755.3,286047019.1,N
1500812775.1,286047021.2,N
1500812795.9,286047020.5,N
1500812815.7,286047021.3,N
1500812835.5,286047019.7,N
1500812855.4,286047014.1,N
1500812875.2,286047015.1,N
1500812895.0,286047014.8,N
1500812895.9,286047014.8,N
1500812915.8,286047014.0,N
1500812935.6,286047012.5,N
1500812955.4,286047010.9,N
1500812975.3,286047012.1,N
1500812995.1,286047012.4,N
1500812996.0,286047012.4,N
1500813015.8,286047008.4,N
1500813035.6,286047009.0,N
1500813055.5,286047009.1,N
1500813075.3,286047007.8,N
1500813095.1,286047011.0,N
1500813115.9,286047013.5,N
1500813135.7,286047014.8,N
1500813155.5,286047014.6,N
1500813175.4,286047016.8,N
1500813195.2,286047014.8,N
1500813215.6,286047012.7,N
1500813235.4,286047015.6,N
1500813255.3,286047011.0,N
1500813275.1,286047009.9,N
1500813276.0,286047009.9,N
1500813295.8,286047010.2,N
1500813315.7,286047010.0,N
1500813335.5,286047011.2,N
1500813355.3,286047009.4,N
1500813375.2,286047009.7,N
1500813395.9,286047011.2,N
1500813415.7,286047009.8,N
1500813435.5,286047011.8,N
1500813455.4,286047010.7,N
1500813475.2,286047008.1,N
1500813495.0,286047007.8,N
1500813515.9,286047010.4,N
1500813535.7,286047010.5,N
1500813555.6,286047007.7,N
1500813575.4,286047010.4,N
1500813595.2,286047010.3,N
1500813615.1,286047010.4,N
1500813635.3,286047010.6,N
1500813655.2,286047012.1,N
1500813675.0,286047009.6,N
1500813675.9,286047009.6,N
1500813695.7,286047012.1,N
1500813715.6,286047012.3,N
1500813735.4,286047007.7,N
1500813755.2,286047006.2,N
1500813775.1,286047006.2,N
1500813776.0,286047006.2,N
1500813795.8,286047007.0,N
1500813815.6,286047006.7,N
1500813835.5,286047004.5,N
1500813855.3,286047004.7,N
1500813875.1,286047006.0,N
1500813895.9,286047002.9,N
1500813915.7,286047003.3,N
1500813935.5,286047002.0,N
1500813955.3,28601500813975.8,286047001.6,Y
1500813995.6,286047002.2,Y
1500814015.5,286047000.6,N
1500814035.3,286046999.2,N
1500814055.1,286046998.5,N
1500814075.8,286046998.7,N
1500814095.7,286047000.3,N
1500814115.5,286046999.1,N
1500814135.8,286046997.3,N
1500814155.7,286046997.1,N
1500814175.5,286046997.1,N
1500814195.3,286046997.6,N
1500814215.2,286046995.7,Y
1500814235.9,286046995.7,Y
1500814255.7,286046995.3,Y
1500814275.6,286046998.5,N
1500814295.4,286046998.5,N
1500814315.2,286047002.5,N
1500814335.1,286046998.5,N
1500814336.0,286046998.5,N
1500814355.8,286046998.6,N
1500814375.6,286046998.2,N
1500814395.5,286047001.9,N
1500814415.3,286047001.7,N
1500814435.1,286047001.9,N
1500814455.8,286047002.7,N
1500814475.7,286047000.5,N
1500814495.5,286046998.8,N
1500814515.3,286047002.7,N
1500814535.2,286047000.0,N
1500814555.9,286046998.7,N
1500814575.7,286046999.2,N
1500814595.6,286046998.2,N
1500814615.4,286047001.1,N
1500814635.2,286046998.6,N
1500814655.0,286047001.1,N
1500814656.0,286047001.1,N
1500814675.8,286046998.9,N
1500814695.6,286046998.8,N
1500814715.4,286047000.3,N
1500814735.3,286046999.5,N
1500814755.1,286046997.5,N
1500814775.8,286046996.7,N
1500814795.7,286046998.0,N
